Vertical_Velocity
25 7 -7 3 0 1 2 0 4 1 2 -1 -0 2 -1 2 -4 2 -0 0 -3 -1
10 -1 -1 -7 -6 0 3 1 -1 -1 1 2 1 2 2 -3 -0 -1 -1 3 -2 -4
10 9 3 1 -2 -1 2 -1 2 3 1 2 -1 0 1 -0 4 -4 -3 1 -2 -2
7 8 4 -2 -0 -0 5 5 0 -3 2 1 -6 2 5 -0 0 -3 0 -2 -2 -2
1 0 -0 -2 3 1 2 2 3 -4 4 2 1 -0 -1 1 -3 0 -2 1 1 -1
6 4 -3 2 -2 1 2 5 -0 0 2 0 2 -3 2 -2 -0 1 2 -2 -1 0
-0 -3 1 1 1 2 3 1 1 -3 1 -1 -1 -1 2 2 1 -3 -2 0 -0 0
-2 0 -0 1 0 -1 1 -1 2 -2 -0 -1 -0 4 1 3 -2 -1 2 -0 2 3
-1 -0 3 2 -3 -1 -2 1 0 -3 -1 -0 1 -0 0 -0 1 2 1 2 2 -1
1 1 0 -1 0 -1 -1 -1 -1 -2 0 1 -0 1 1 1 -1 0 1 -0 -1 -0
2 2 1 0 -0 -2 -1 0 -0 1 2 1 -0 0 -0 1 0 -0 -1 -1 1 1
1 -0 -0 2 2 1 -1 -2 -1 -1 -2 -1 -2 -0 -1 -3 -5 -1 2 1 2 -1
3 1 -1 -2 -3 -2 -1 -1 0 1 2 2 3 2 0 1 1 -1 -2 -6 -1 0
-0 0 1 1 0 0 0 2 3 3 1 2 0 -1 -1 -2 -4 -2 -2 1 3 0
Height
3107 3111 3113 3114 3114 3114 3113 3113 3114 3113 3113 3112 3110 3109 3107 3106 3105 3103 3102 3100 3097 3096
3102 3104 3105 3107 3107 3107 3106 3107 3108 3107 3106 3104 3104 3102 3100 3099 3097 3096 3095 3092 3090 3089
3095 3097 3097 3098 3099 3100 3100 3100 3100 3100 3099 3098 3097 3095 3093 3092 3090 3089 3087 3086 3083 3081
3090 3090 3090 3092 3093 3094 3094 3094 3093 3093 3092 3091 3091 3089 3087 3085 3084 3081 3080 3078 3075 3072
3085 3085 3085 3086 3087 3087 3087 3087 3087 3087 3087 3085 3084 3083 3081 3079 3076 3074 3070 3068 3066 3062
3079 3080 3080 3081 3082 3082 3082 3082 3082 3082 3081 3079 3078 3076 3073 3070 3066 3064 3061 3059 3056 3053
3074 3075 3075 3076 3077 3077 3077 3077 3076 3075 3074 3072 3069 3066 3063 3061 3058 3055 3052 3048 3047 3044
3070 3071 3071 3072 3072 3072 3072 3071 3069 3067 3066 3063 3059 3057 3055 3052 3048 3046 3043 3040 3039 3037
3065 3066 3066 3066 3066 3066 3065 3063 3061 3059 3056 3054 3051 3049 3046 3042 3040 3038 3036 3034 3032 3030
3060 3061 3060 3060 3060 3059 3057 3055 3052 3050 3047 3043 3041 3039 3036 3035 3033 3031 3030 3027 3025 3023
3054 3054 3054 3053 3052 3050 3048 3045 3043 3040 3038 3035 3033 3031 3029 3027 3025 3023 3021 3019 3018 3017
3048 3047 3046 3045 3044 3042 3040 3037 3034 3032 3029 3027 3024 3023 3020 3017 3015 3014 3013 3011 3009 3008
3041 3040 3039 3037 3035 3033 3030 3027 3025 3023 3021 3018 3015 3012 3010 3008 3006 3004 3003 3002 3000 2998
3033 3032 3030 3027 3026 3024 3022 3019 3016 3013 3011 3009 3007 3004 3002 3000 2997 2995 2993 2992 2990 2987